FW8874 Weather Reports


Display with metric or nautical units.
time (UTC)temp
F
wind
direction
speed
MPH
gust
MPH
rain 1hr
in
rain 24hr
in
rain mn
in
humidity
%
barometer
mb
20260510151531 52 103 3.0 12.0 0.00 0.00 0.00 74 1015.0
20260510150032 52 8 6.0 14.0 0.00 0.00 0.00 74 1015.3
20260510144539 51 25 4.0 18.0 0.00 0.00 0.00 76 1015.3
20260510143039 51 20 3.0 12.0 0.00 0.00 0.00 76 1015.5
20260510141531 51 14 4.0 13.0 0.00 0.00 0.00 77 1015.7
20260510140036 51 58 2.0 10.0 0.00 0.00 0.00 77 1016.0
20260510134533 52 41 2.0 11.0 0.00 0.00 0.00 77 1016.1
20260510133032 52 55 3.0 11.0 0.00 0.00 0.00 76 1016.1
20260510131536 52 11 3.0 14.0 0.00 0.00 0.00 75 1016.0
20260510130029 53 70 5.0 14.0 0.00 0.00 0.00 73 1016.1
20260510124530 54 63 4.0 14.0 0.00 0.00 0.00 71 1016.2
20260510123034 54 19 7.0 17.0 0.00 0.00 0.00 69 1016.3
20260510121530 54 340 3.0 14.0 0.00 0.00 0.00 69 1016.4
20260510120032 54 11 6.0 18.0 0.00 0.00 0.00 69 1016.5
20260510114532 54 39 7.0 14.0 0.00 0.00 0.00 69 1016.4
20260510113031 55 63 5.0 13.0 0.00 0.00 0.00 67 1016.6
20260510111530 55 99 5.0 18.0 0.00 0.00 0.00 68 1016.7
20260510110038 54 77 4.0 12.0 0.00 0.00 0.00 69 1016.8
20260510104530 54 272 5.0 13.0 0.00 0.00 0.00 70 1017.0
20260510103030 53 78 5.0 12.0 0.00 0.00 0.00 71 1017.0
20260510101529 53 31 5.0 13.0 0.00 0.00 0.00 72 1017.2
20260510100029 53 24 7.0 18.0 0.00 0.00 0.00 71 1017.1
20260510094545 52 76 6.0 23.0 0.00 0.00 0.00 72 1017.0
20260510093048 52 37 5.0 15.0 0.00 0.00 0.00 73 1017.2
20260510091541 52 44 5.0 16.0 0.00 0.00 0.00 75 1017.1
20260510090030 50 13 4.0 16.0 0.00 0.00 0.00 77 1017.2
20260510084529 50 326 6.0 13.0 0.00 0.00 0.00 78 1017.5
20260510083029 50 332 6.0 16.0 0.00 0.00 0.00 78 1017.5
20260510081530 50 53 5.0 17.0 0.00 0.00 0.00 79 1017.7
20260510080030 49 15 3.0 17.0 0.00 0.00 0.00 80 1017.5
20260510074532 49 99 6.0 17.0 0.00 0.00 0.00 80 1017.6
20260510073040 49 30 4.0 17.0 0.00 0.00 0.00 81 1017.7
20260510071529 49 352 4.0 11.0 0.00 0.00 0.00 83 1017.6
20260510070033 48 98 3.0 12.0 0.00 0.00 0.00 84 1017.6
20260510064532 48 106 3.0 12.0 0.00 0.00 0.00 84 1017.4
20260510063032 48 57 2.0 10.0 0.00 0.00 0.00 85 1017.6
20260510061532 47 34 1.0 10.0 0.00 0.00 0.00 86 1017.5
20260510060032 47 66 3.0 9.0 0.00 0.00 0.00 87 1017.4
20260510054532 47 63 1.0 7.0 0.00 0.00 0.00 87 1017.4
20260510053050 46 65 3.0 7.0 0.00 0.00 0.00 88 1017.3
20260510051530 46 309 1.0 7.0 0.00 0.00 0.00 88 1017.5
20260510050030 46 0 1.0 6.0 0.00 0.00 0.00 88 1017.6
20260510044530 46 355 1.0 8.0 0.00 0.00 0.00 87 1017.3
20260510043040 46 46 1.0 9.0 0.00 0.00 0.00 87 1017.4
20260510041531 47 27 2.0 9.0 0.00 0.00 0.00 87 1017.3
20260510040039 47 46 1.0 10.0 0.00 0.00 0.00 86 1017.4
20260510034532 47 18 2.0 7.0 0.00 0.00 0.00 86 1017.6
20260510033030 47 0 1.0 7.0 0.00 0.00 0.00 86 1017.7
20260510031530 47 89 1.0 8.0 0.00 0.00 0.00 85 1017.8
20260510030031 47 6 2.0 10.0 0.00 0.00 0.00 85 1017.8
20260510024531 48 82 2.0 10.0 0.00 0.00 0.00 84 1017.8
20260510023032 48 27 3.0 10.0 0.00 0.00 0.00 82 1017.7
20260510021539 48 20 2.0 8.0 0.00 0.00 0.00 79 1017.8
20260510020032 49 23 1.0 8.0 0.00 0.00 0.00 75 1017.7
20260510014533 49 55 2.0 8.0 0.00 0.00 0.00 73 1017.7
20260510013035 49 335 1.0 5.0 0.00 0.00 0.00 72 1017.7
20260510011539 50 0 1.0 6.0 0.00 0.00 0.00 72 1017.6
20260510010032 50 67 2.0 8.0 0.00 0.00 0.00 70 1017.7
20260510004533 50 359 2.0 7.0 0.00 0.00 0.00 68 1017.7
20260510003031 50 52 0.0 4.0 0.00 0.00 0.00 69 1017.8
20260510001534 51 94 0.0 2.0 0.00 0.00 0.00 67 1017.7
20260510000040 51 58 1.0 4.0 0.00 0.00 0.00 66 1017.6
20260509234550 52 56 1.0 7.0 0.00 0.00 0.00 65 1017.8
20260509233033 52 57 2.0 7.0 0.00 0.00 0.00 64 1017.7
20260509231531 52 79 1.0 6.0 0.00 0.00 0.00 62 1017.6
20260509230034 52 73 1.0 5.0 0.00 0.00 0.00 61 1017.4
20260509224531 53 27 0.0 4.0 0.00 0.00 0.00 60 1017.6
20260509223032 53 64 0.0 5.0 0.00 0.00 0.00 58 1017.5
20260509221529 53 0 1.0 4.0 0.00 0.00 0.00 56 1017.5
20260509220032 54 0 0.0 10.0 0.00 0.00 0.00 54 1017.6
20260509214537 54 23 2.0 10.0 0.00 0.00 0.00 54 1017.6
20260509213033 54 0 0.0 5.0 0.00 0.00 0.00 56 1017.5
20260509211532 55 64 2.0 9.0 0.00 0.00 0.00 53 1017.6
20260509210034 56 66 4.0 10.0 0.00 0.00 0.00 53 1017.3
20260509204536 57 66 2.0 8.0 0.00 0.00 0.00 54 1017.1
20260509203031 57 68 1.0 5.0 0.00 0.00 0.00 53 1017.0
20260509201529 58 95 3.0 11.0 0.00 0.00 0.00 52 1017.0
20260509200032 58 49 3.0 8.0 0.00 0.00 0.00 52 1016.9
20260509194534 59 76 2.0 7.0 0.00 0.00 0.00 52 1016.9
20260509193032 60 60 1.0 5.0 0.00 0.00 0.00 50 1016.7
20260509191547 61 56 3.0 9.0 0.00 0.00 0.00 47 1016.7
20260509190033 62 0 2.0 7.0 0.00 0.00 0.00 51 1016.6
20260509184544 62 77 2.0 8.0 0.00 0.00 0.00 50 1016.3
20260509183043 63 63 3.0 11.0 0.00 0.00 0.00 52 1016.4
20260509181531 64 86 2.0 8.0 0.00 0.00 0.00 50 1016.3
20260509180031 64 63 2.0 8.0 0.00 0.00 0.00 50 1016.2
20260509174532 65 77 3.0 8.0 0.00 0.00 0.00 48 1015.9
20260509173031 65 70 3.0 10.0 0.00 0.00 0.00 50 1015.6
20260509171531 65 60 2.0 10.0 0.00 0.00 0.00 50 1015.7
20260509170030 66 73 2.0 9.0 0.00 0.00 0.00 49 1015.8
20260509164531 66 52 2.0 9.0 0.00 0.00 0.00 48 1015.8
20260509163039 67 75 2.0 10.0 0.00 0.00 0.00 49 1015.8
20260509161531 68 360 1.0 8.0 0.00 0.00 0.00 49 1015.6
20260509160030 68 54 2.0 10.0 0.00 0.00 0.00 48 1015.7
20260509154529 68 12 3.0 7.0 0.00 0.00 0.00 47 1015.8
20260509153042 67 57 2.0 6.0 0.00 0.00 0.00 48 1016.0